DW7304 Weather Reports


Display with metric or nautical units.
time (UTC)temp
F
wind
direction
speed
MPH
gust
MPH
rain 1hr
in
rain 24hr
in
rain mn
in
humidity
%
barometer
mb
20181120231629 33 28 8.0 21.0 0.02 0.67 0.00 86 1010.5
20181120230729 34 332 6.0 21.0 0.02 0.67 0.00 86 1010.5
20181120225829 34 325 7.0 20.0 0.02 0.67 0.02 86 1010.6
20181120224928 33 18 7.0 18.0 0.00 0.65 0.00 86 1010.6
20181120224029 34 4 7.0 19.0 0.00 0.65 0.00 86 1010.7
20181120223129 34 353 6.0 18.0 0.00 0.65 0.00 86 1010.7
20181120222229 34 340 6.0 15.0 0.00 0.65 0.00 86 1010.7
20181120221328 34 308 6.0 16.0 0.00 0.65 0.00 86 1010.6
20181120220429 33 330 6.0 14.0 0.00 0.65 0.00 86 1010.7
20181120215533 34 21 6.0 20.0 0.00 0.65 0.00 86 1010.5
20181120214629 34 7 6.0 18.0 0.00 0.65 0.00 85 1010.5
20181120213729 34 338 6.0 14.0 0.00 0.65 0.00 85 1010.4
20181120212829 34 298 5.0 14.0 0.00 0.65 0.00 85 1010.2
20181120211929 34 350 6.0 13.0 0.00 0.65 0.00 85 1010.2
20181120211028 34 355 5.0 17.0 0.00 0.65 0.00 85 1010.2
20181120210129 34 331 5.0 17.0 0.00 0.65 0.00 85 1010.0
20181120205229 34 358 5.0 21.0 0.00 0.65 0.00 85 1010.3
20181120204329 34 332 5.0 13.0 0.00 0.65 0.00 85 1010.2
20181120203429 34 4 6.0 15.0 0.00 0.65 0.00 84 1010.3
20181120202529 34 329 6.0 15.0 0.00 0.65 0.00 84 1010.1
20181120201629 34 338 6.0 15.0 0.00 0.65 0.00 84 1009.9
20181120200729 34 351 6.0 19.0 0.00 0.65 0.00 84 1009.7
20181120195829 34 29 7.0 19.0 0.00 0.65 0.00 84 1009.7
20181120194929 33 56 7.0 16.0 0.00 0.65 0.00 85 1009.8
20181120194029 33 23 7.0 17.0 0.00 0.65 0.00 85 1009.6
20181120193129 33 52 6.0 21.0 0.00 0.65 0.00 85 1009.5
20181120192229 33 26 7.0 19.0 0.00 0.65 0.00 85 1009.4
20181120191329 33 30 9.0 18.0 0.00 0.65 0.00 84 1009.4
20181120190429 33 111 8.0 22.0 0.00 0.65 0.00 84 1009.1
20181120185529 33 97 8.0 21.0 0.00 0.65 0.00 84 1009.3
20181120184629 33 81 9.0 21.0 0.00 0.65 0.00 85 1009.4
20181120183729 32 83 9.0 26.0 0.00 0.65 0.00 85 1009.3
20181120182829 32 62 9.0 26.0 0.00 0.65 0.00 85 1009.1
20181120181928 32 74 9.0 18.0 0.00 0.65 0.00 86 1009.1
20181120181028 32 35 10.0 22.0 0.00 0.65 0.00 86 1008.9
20181120180129 32 57 8.0 23.0 0.00 0.65 0.00 86 1009.0
20181120175229 32 236 7.0 16.0 0.00 0.65 0.00 86 1009.0
20181120174329 32 50 8.0 16.0 0.00 0.65 0.00 85 1009.0
20181120173429 32 49 8.0 18.0 0.00 0.65 0.00 86 1009.0
20181120172529 32 40 7.0 19.0 0.00 0.65 0.00 86 1008.8
20181120171629 32 35 7.0 21.0 0.00 0.65 0.00 85 1008.5
20181120170728 32 60 7.0 18.0 0.00 0.65 0.00 85 1008.5
20181120165829 32 48 7.0 23.0 0.00 0.65 0.00 86 1008.2
20181120164929 32 358 7.0 23.0 0.00 0.65 0.00 86 1008.3
20181120164029 32 342 6.0 17.0 0.00 0.65 0.00 86 1008.2
20181120163129 32 4 7.0 18.0 0.00 0.65 0.00 86 1008.0
20181120162229 32 90 8.0 17.0 0.00 0.65 0.00 86 1008.0
20181120161329 32 88 7.0 16.0 0.00 0.65 0.00 86 1007.9
20181120160429 32 24 7.0 15.0 0.00 0.65 0.00 86 1007.9
20181120155529 31 71 7.0 17.0 0.00 0.65 0.00 86 1007.6
20181120154629 31 46 7.0 17.0 0.00 0.65 0.08 86 1007.6
20181120153728 31 26 7.0 22.0 0.00 0.65 0.08 86 1007.6
20181120152829 32 32 7.0 18.0 0.00 0.65 0.08 86 1007.7
20181120151929 32 274 7.0 18.0 0.00 0.65 0.08 86 1007.7
20181120151029 32 21 7.0 19.0 0.00 0.65 0.08 86 1007.9
20181120150129 32 34 7.0 23.0 0.00 0.65 0.08 86 1008.0
20181120145229 32 89 8.0 19.0 0.00 0.65 0.08 86 1008.0
20181120144329 32 56 9.0 20.0 0.00 0.65 0.08 86 1008.1
20181120143429 31 92 9.0 25.0 0.00 0.65 0.08 86 1008.1
20181120142529 31 80 9.0 21.0 0.00 0.65 0.08 86 1008.0
20181120141629 31 74 8.0 19.0 0.00 0.65 0.08 86 1008.2
20181120140728 31 58 10.0 23.0 0.00 0.65 0.08 86 1008.3
20181120135829 31 84 9.0 18.0 0.00 0.65 0.08 86 1008.2
20181120134929 31 64 9.0 20.0 0.00 0.65 0.08 86 1008.1
20181120134031 31 82 10.0 22.0 0.00 0.65 0.08 86 1008.2
20181120133129 31 66 9.0 18.0 0.00 0.65 0.08 86 1007.7
20181120132229 31 97 9.0 24.0 0.00 0.65 0.08 86 1007.8
20181120131329 31 81 11.0 24.0 0.00 0.65 0.08 86 1007.9
20181120130429 31 78 11.0 25.0 0.00 0.65 0.08 87 1007.7
20181120125528 31 87 10.0 26.0 0.00 0.65 0.08 87 1007.8
20181120124629 31 72 10.0 24.0 0.00 0.65 0.08 87 1007.5
20181120123729 31 106 10.0 24.0 0.00 0.65 0.08 87 1007.6
20181120122829 31 95 11.0 22.0 0.00 0.65 0.08 87 1007.7
20181120121929 31 87 11.0 25.0 0.00 0.65 0.08 88 1007.6
20181120121029 31 91 11.0 24.0 0.00 0.65 0.08 88 1007.6
20181120120129 31 100 10.0 23.0 0.00 0.65 0.08 88 1007.6
20181120115229 31 95 9.0 23.0 0.00 0.65 0.08 88 1007.6
20181120114329 31 92 10.0 23.0 0.00 0.65 0.08 88 1007.6
20181120113429 31 86 10.0 29.0 0.00 0.65 0.08 88 1007.5
20181120112528 31 101 11.0 21.0 0.00 0.65 0.08 88 1007.5
20181120111629 31 78 10.0 21.0 0.00 0.65 0.08 88 1007.8
20181120110728 30 57 10.0 22.0 0.00 0.65 0.08 88 1007.7
20181120105829 30 72 11.0 22.0 0.00 0.65 0.08 89 1007.6
20181120104929 30 65 11.0 32.0 0.02 0.65 0.08 89 1007.5
20181120104029 30 48 10.0 25.0 0.02 0.65 0.08 89 1007.4
20181120103129 30 78 11.0 23.0 0.02 0.65 0.08 89 1007.4
20181120102229 30 71 11.0 22.0 0.02 0.65 0.08 89 1007.4
20181120101329 30 72 10.0 25.0 0.02 0.65 0.08 89 1007.4
20181120100429 30 78 13.0 40.0 0.02 0.65 0.08 89 1007.9
20181120095529 30 64 12.0 25.0 0.02 0.65 0.08 89 1007.6
20181120094628 29 56 12.0 25.0 0.00 0.63 0.06 89 1007.6
20181120093729 29 59 11.0 24.0 0.00 0.63 0.06 89 1007.5
20181120092828 29 45 13.0 30.0 0.00 0.63 0.06 89 1007.5
20181120091929 29 55 11.0 25.0 0.00 0.63 0.06 89 1007.5
20181120091029 29 67 12.0 26.0 0.00 0.63 0.06 89 1007.8
20181120090129 29 54 12.0 24.0 0.00 0.63 0.06 89 1007.4
20181120085229 29 62 11.0 27.0 0.00 0.63 0.06 89 1006.9
20181120084329 29 75 10.0 20.0 0.00 0.63 0.06 89 1006.6
20181120083428 29 72 8.0 21.0 0.00 0.63 0.06 89 1006.9
20181120082529 29 77 12.0 33.0 0.00 0.63 0.06 89 1006.9
20181120081629 29 62 12.0 30.0 0.00 0.63 0.06 89 1006.6
20181120080729 29 50 13.0 28.0 0.00 0.63 0.06 89 1006.6
20181120075829 29 63 13.0 36.0 0.00 0.63 0.06 89 1006.6
20181120074929 29 94 11.0 21.0 0.02 0.63 0.06 89 1006.4
20181120074029 29 66 11.0 27.0 0.02 0.63 0.06 89 1006.2
20181120073129 29 71 11.0 25.0 0.06 0.63 0.06 89 1006.0
20181120072229 29 82 10.0 25.0 0.06 0.63 0.06 89 1006.2
20181120071329 29 70 11.0 35.0 0.06 0.63 0.06 89 1005.9
20181120070429 29 79 11.0 25.0 0.06 0.63 0.06 89 1006.0
20181120065529 29 54 14.0 35.0 0.06 0.63 0.06 89 1006.1
20181120064629 29 48 12.0 30.0 0.06 0.61 0.04 89 1005.9
20181120063729 29 42 14.0 35.0 0.06 0.61 0.04 89 1005.8
20181120062828 29 43 11.0 23.0 0.02 0.57 0.00 89 1005.7
20181120061929 29 63 12.0 35.0 0.02 0.57 0.00 89 1005.5
20181120061029 29 68 13.0 27.0 0.02 0.57 0.00 89 1005.7
20181120060129 29 46 14.0 24.0 0.04 0.57 0.57 89 1005.7
20181120055229 29 51 14.0 24.0 0.04 0.57 0.57 89 1005.4
20181120054329 29 50 14.0 34.0 0.02 0.55 0.55 89 1005.6
20181120053429 29 47 12.0 23.0 0.02 0.55 0.55 89 1005.2
20181120052529 29 37 14.0 32.0 0.02 0.55 0.55 89 1005.2
20181120051629 29 53 12.0 37.0 0.06 0.55 0.55 88 1005.3
20181120050729 29 62 14.0 37.0 0.04 0.53 0.53 88 1005.3
20181120045828 29 48 16.0 32.0 0.22 0.53 0.53 88 1005.1
20181120044929 29 53 14.0 28.0 0.24 0.53 0.53 88 1005.2
20181120044029 29 45 12.0 25.0 0.33 0.53 0.53 88 1005.4
20181120043129 29 37 12.0 24.0 0.33 0.53 0.53 88 1005.4
20181120042229 29 44 13.0 28.0 0.33 0.53 0.53 88 1005.5
20181120041329 29 43 16.0 38.0 0.28 0.49 0.49 87 1005.7
20181120040429 29 42 15.0 31.0 0.33 0.49 0.49 87 1005.5
20181120035529 29 47 13.0 28.0 0.22 0.28 0.29 87 1005.8
20181120034629 29 55 12.0 34.0 0.22 0.28 0.29 87 1005.7
20181120033729 30 49 13.0 30.0 0.14 0.20 0.20 87 1005.7
20181120032829 30 50 15.0 30.0 0.14 0.20 0.20 87 1005.6
20181120031928 30 42 14.0 28.0 0.19 0.20 0.20 87 1005.0
20181120031029 29 47 15.0 33.0 0.19 0.20 0.20 87 1004.8
20181120030129 29 54 14.0 29.0 0.04 0.06 0.06 87 1004.9
20181120025229 29 54 13.0 28.0 0.04 0.06 0.06 87 1005.0
20181120024328 29 55 15.0 36.0 0.04 0.06 0.06 87 1005.3
20181120023429 29 61 11.0 26.0 0.04 0.06 0.06 87 1005.3
20181120022529 29 59 14.0 32.0 0.00 0.02 0.02 87 1005.6
20181120021629 29 53 13.0 31.0 0.00 0.02 0.02 87 1005.9
20181120020729 29 64 13.0 24.0 0.00 0.02 0.02 87 1006.0
20181120015828 29 57 11.0 23.0 0.00 0.02 0.02 87 1006.0
20181120014929 29 42 12.0 30.0 0.00 0.02 0.02 87 1006.0
20181120014029 29 61 10.0 28.0 0.00 0.02 0.02 87 1006.3
20181120013129 29 77 10.0 20.0 0.02 0.02 0.02 87 1006.4
20181120012229 29 80 10.0 22.0 0.02 0.02 0.02 88 1006.6
20181120011329 29 58 10.0 19.0 0.02 0.02 0.02 88 1006.6
20181120010429 29 60 10.0 26.0 0.02 0.02 0.02 88 1006.6
20181120005529 29 56 10.0 24.0 0.02 0.02 0.02 88 1006.9
20181120004629 29 77 10.0 23.0 0.02 0.02 0.02 88 1007.1
20181120003729 29 50 11.0 23.0 0.00 0.00 0.00 88 1007.1
20181120002829 29 67 10.0 21.0 0.00 0.00 0.00 88 1007.4
20181120001929 29 54 10.0 29.0 0.00 0.00 0.00 88 1007.8
20181120001029 29 62 9.0 26.0 0.00 0.00 0.00 88 1007.4
20181120000129 29 79 11.0 23.0 0.00 0.00 0.00 88 1007.8
20181119235229 29 66 10.0 26.0 0.00 0.00 0.00 88 1007.8
20181119234328 29 90 10.0 22.0 0.00 0.00 0.00 88 1008.0
20181119233428 29 72 12.0 28.0 0.00 0.00 0.00 88 1008.1
20181119232529 29 79 11.0 28.0 0.00 0.00 0.00 88 1008.4